Regional Weather Roundup
Issued by NWS

Home | Current Version | Previous Version | Graphics & Text | Print | Product List | Glossary On
Versions: 1 2 3 4 5 6 7 8 9 10 11 12 13 14 15 16 17 18 19 20 21 22 23 24 25 26 27 28 29 30 31 32 33 34 35 36 37 38 39 40 41 42 43 44 45 46 47 48 49 50
000
ASUS43 KMPX 011701
RWRMN
WEATHER ROUNDUP FOR MINNESOTA
NATIONAL WEATHER SERVICE TWIN CITIES/CHANHASSEN MN
1200 PM CDT SAT OCT 01 2016


NOTE: "FAIR" INDICATES FEW OR NO CLOUDS BELOW 12,000 FEET WITH NO
SIGNIFICANT WEATHER AND/OR OBSTRUCTIONS TO VISIBILITY. N/A MEANS
CURRENT SKY AND/OR WEATHER CONDITIONS ARE NOT AVAILABLE.

MNZ060>063-068>070-011800-
   Twin Cities Metro

CITY           SKY/WX    TMP DP  RH WIND       PRES   REMARKS
TWIN CITIES    SUNNY     65  54  67 NE7G18    30.15F
ST PAUL        SUNNY     66  55  67 N7        30.15F
CRYSTAL        SUNNY     62  51  67 N7        30.15F
BLAINE         MOSUNNY   63  57  82 NE7       30.17F
LAKEVILLE      SUNNY     66  55  68 NE8       30.14F
EDEN PRAIRIE   SUNNY     66  54  65 NE7       30.14F
LAKEVILLE      SUNNY     66  55  68 NE8       30.14F
SOUTH ST PAUL  SUNNY     66  54  64 N8        30.15F
LAKE ELMO      FAIR      64  57  77 N8        30.16F
$$
MNZ001>005-007-008-013>017-022>024-027-028-011800-
   Northwest Minnesota

CITY           SKY/WX    TMP DP  RH WIND       PRES   REMARKS
BEMIDJI        CLOUDY    53  52  97 E6        30.20F
HALLOCK        SUNNY     64  54  68 S10       30.14F
ROSEAU         MOSUNNY   61  54  77 CALM      30.18S
WARROAD        MOSUNNY   55  52  88 NE3       30.20S
THIEF RVR FALL CLOUDY    60  52  74 SE3       30.17F
CROOKSTON      CLOUDY    64  54  68 SE7       30.15F
FOSSTON        MOSUNNY   70  57  64 S6        30.17S
DETROIT LAKES  MOSUNNY   57  52  82 SE8       30.18F
MOORHEAD       CLOUDY    64  54  68 S9        30.15S
PARK RAPIDS    CLOUDY    56  51  84 CALM      30.19F
MAHNOMEN       FAIR      66  52  60 SE5       30.16S
$$
MNZ006-009>011-018-025>026-011800-
   North Central Minnesota

CITY           SKY/WX    TMP DP  RH WIND       PRES   REMARKS
BAUDETTE       MOSUNNY   58  51  78 SE5       30.20F
FLAG ISLAND    CLOUDY    55  50  82 S3        30.19S
INTL FALLS     CLOUDY    64  51  62 SE5       30.20F
WASKISH        PTSUNNY   54  54 100 E6        30.20S
BIG FORK       SUNNY     63  52  67 CALM      30.20F
LONGVILLE      CLOUDY    55  52  88 CALM      30.20F
GRAND RAPIDS   PTSUNNY   57  51  80 CALM      30.22F
ORR            SUNNY     64  48  55 SE6       30.18F
COOK           PTSUNNY   63  50  63 E3        30.21F
WALKER         CLOUDY    52  49  91 CALM      30.20F
$$
MNZ012-019>021-037-011800-
   Northeast Minnesota

CITY           SKY/WX    TMP DP  RH WIND       PRES   REMARKS
DULUTH         CLOUDY    62  53  72 E10       30.20F
ELY            MOSUNNY   63  48  59 E6        30.22F
HIBBING        CLOUDY    56  50  80 SE3       30.21F
EVELETH        SUNNY     60  50  69 CALM      30.22F
DULUTH HARBOR  SUNNY     57  54  88 NE5       30.22F
TWO HARBORS    PTSUNNY   64  55  72 NE7       30.20F
SILVER BAY     PTSUNNY   64  55  72 NE7       30.20F
GRAND MARAIS     N/A     63  49  60 E6        30.22S
G MARAIS ARPRT CLOUDY    61  45  55 NE7       30.25F
$$
MNZ029>031-032-039>041-046>048-054>057-064-011800-
   West Central Minnesota

CITY           SKY/WX    TMP DP  RH WIND       PRES   REMARKS
FERGUS FALLS   CLOUDY    63  54  72 SE8       30.17F
MORRIS         CLOUDY    64  54  68 SE7       30.15S
ALEXANDRIA     MOSUNNY   59  55  87 VRB3      30.18F FOG
ELBOW LAKE     FAIR      63  55  74 SE6       30.17S
WADENA         CLOUDY    55  54  94 CALM      30.18F
GLENWOOD       SUNNY     63  55  77 NE3       30.17F
BENSON         SUNNY     64  54  68 SE3       30.16F
ORTONVILLE     SUNNY     64  54  68 CALM      30.14F
MADISON        CLOUDY    66  55  68 SE3       30.15S
WILLMAR        FAIR      66  55  68 E5        30.16F
$$
MNZ033>034-036-042>043-049>051-058-059-011800-
   Central Minnesota

CITY           SKY/WX    TMP DP  RH WIND       PRES   REMARKS
ST CLOUD       SUNNY     62  54  74 E6        30.17F
SAUK CENTRE    FAIR      60  54  80 NE6       30.18F
PAYNESVILLE    SUNNY     64  54  69 NE5       30.17F
AITKIN         SUNNY     63  50  63 E3        30.18F
PINE RIVER     PTSUNNY   55  52  88 CALM      30.22F
BRAINERD       SUNNY     61  52  72 N5        30.19F
STAPLES        SUNNY     59  52  77 E3        30.18F
LONG PRAIRIE   PTSUNNY   55  52  88 CALM      30.18F
LITTLE FALLS   SUNNY     61  52  72 E3        30.18F
LITCHFIELD     SUNNY     66  57  72 CALM      30.16F
BUFFALO        MOSUNNY   59  52  78 NE6       30.17F
MAPLE LAKE     MOSUNNY   62  56  80 E5        30.18F
HUTCHINSON     SUNNY     64  56  76 N3        30.16F
$$
MNZ037-044-045-052-053-011800-
   East Central Minnesota

CITY           SKY/WX    TMP DP  RH WIND       PRES   REMARKS
PRINCETON        N/A     59  54  82 N5        30.18F
MORA           MOSUNNY   57  52  82 SE5       30.20F
CAMBRIDGE      CLOUDY    57  54  88 CALM      30.16F
MOOSE LAKE     SUNNY     63  52  67 E5        30.18F
HINCKLEY       FAIR      63  54  72 E5        30.19F
CLOQUET        PTSUNNY   61  52  72 E6        30.20F
MCGREGOR       SUNNY     63  54  72 NE3       30.20F
$$
MNZ071>073-080-081-089-090-097-098-011800-
   Southwest Minnesota

CITY           SKY/WX    TMP DP  RH WIND       PRES   REMARKS
MONTEVIDEO     MOSUNNY   68  55  64 CALM      30.16F
GRANITE FALLS  SUNNY     66  57  71 CALM      30.16F
CANBY          CLOUDY    62  54  74 CALM      30.16F
MARSHALL       PTSUNNY   64  56  75 CALM      30.15F
REDWOOD FALLS  SUNNY     67  54  63 S3        30.14F
OLIVIA         SUNNY     70  55  60 E6        30.14F
PIPESTONE      CLOUDY    64  55  72 CALM      30.15S
WINDOM         MOSUNNY   68  54  60 NE6       30.14F
WORTHINGTON    CLOUDY    64  56  75 VRB3      30.15F
JACKSON        PTSUNNY   68  52  56 NE8       30.14F
TRACY          CLOUDY    67  56  67 CALM      30.15F
$$
MNZ065>067-074>077-082>085-091>093-011800-
   South Central Minnesota

CITY           SKY/WX    TMP DP  RH WIND       PRES   REMARKS
MANKATO        SUNNY     68  55  63 NE10      30.13F
NEW ULM        SUNNY     66  54  63 NE7       30.13F
ST JAMES       SUNNY     68  55  64 N8        30.14F
FAIRMONT       CLOUDY    67  55  65 VRB6      30.13F
FARIBAULT      SUNNY     68  55  64 NE9       30.14F
OWATONNA       PTSUNNY   68  55  64 NE8       30.13S
WASECA         SUNNY     68  54  60 NE12G17   30.14S
ALBERT LEA     SUNNY     68  54  60 NE10      30.11F
$$
MNZ078>079-086>088-094>096-011800-
   Southeast Minnesota

CITY           SKY/WX    TMP DP  RH WIND       PRES   REMARKS
ROCHESTER      CLOUDY    64  55  72 NE10      30.12F
RED WING       SUNNY     70  52  52 E5        30.11F
STANTON        MOSUNNY   67  55  64 NE6       30.12F
DODGE CENTER   CLOUDY    64  54  68 N8        30.12F
WINONA         HAZE      63  54  72 E8        30.12F VSB 1/2
AUSTIN         CLOUDY    64  55  72 NE7       30.11F
PRESTON        CLOUDY    62  55  79 NE8       30.12S
$$
ABBREVIATIONS USED IN REMARKS
   TC - TEMPERATURES IN CELSIUS
  WCI - WIND CHILL INDEX
   HX - HEAT INDEX
  VSB - VISIBILITY
$$



USA.gov is the U.S. government's official web portal to all federal, state and local government web resources and services.